Location: Cuiry
(49.3858°N, 3.7708°E)
Time: 23:17:51
(UTC+00:00)

Cosmos 1703 - Pass Details

Date: 12 January 2026
Orbit: 414 x 426 km, 82.5° (Epoch: 7 February)

Event Time Altitude Azimuth Distance (km) Brightness Sun altitude
Rises 17:49:21 0° 178° (S) 2,405 6.8 -15.6°
Reaches altitude 10° 17:51:24 10° 174° (S) 1,541 5.7 -15.9°
Maximum altitude 17:54:41 54° 96° (E) 538 2.9 -16.4°
Enters shadow 17:55:45 36° 39° (NE) 716 3.5 -16.6°
